Oroville, CA

8:42 AM PDT on June 28, 2017 (GMT -0700)
Oroville Municipal

Weather History for KOVE - January, 2014

Change the Weather History Date:

Wednesday, January 29, 2014

  Actual Average Record
Temperature  
Mean Temperature 56 °F -  
Max Temperature 60 °F 56 °F 66 °F (1962)
Min Temperature 51 °F 36 °F 25 °F (1957)
Degree Days  
Heating Degree Days 10    
Growing Degree Days 6 (Base 50)    
Moisture  
Dew Point 50 °F    
Average Humidity 83    
Maximum Humidity 97    
Minimum Humidity 53    
Precipitation  
Precipitation 0.37 in - - ()
Sea Level Pressure  
Sea Level Pressure 30.06 in    
Wind  
Wind Speed 8 mph (SE)    
Max Wind Speed 21 mph    
Max Gust Speed 29 mph    
Visibility 6 miles    
Events Rain    
Averages and records for this station are not official NWS values.
T = Trace of Precipitation, MM = Missing Value Source: NWS Daily Summary

Daily Weather History Graph

Daily Weather History Graph

Search for Another Location

Airport or City:

Trip Planner

Search our weather history database for the weather conditions in past years. The results will help you decide how hot, cold, wet, or windy it might be!

Date:

Astronomy

Jan. 29, 2014 Rise Set
Actual Time 7:16 AM PST 5:23 PM PST
Civil Twilight 6:47 AM PST 5:51 PM PST
Nautical Twilight 6:15 AM PST 6:24 PM PST
Astronomical Twilight 5:43 AM PST 6:55 PM PST
Moon 5:57 AM PST (1/29) 4:29 PM PST (1/29)
Length of Visible Light 11h 04m
Length of Day
10h 06m
Waning Crescent, 2% of the Moon is Illuminated
Jan 29
Waning Crescent
Jan 30
New
Feb 6
First Quarter
Feb 14
Full
Feb 22
Last Quarter

Hourly Weather History & Observations

Time (PST) Temp. Dew Point Humidity Pressure Visibility Wind Dir Wind Speed Gust Speed Precip Events Conditions
12:53 AM 55.0 °F 37.9 °F 53% 30.18 in 10.0 mi East 5.8 mph - N/A   Clear
1:53 AM 54.0 °F 37.9 °F 55% 30.18 in 10.0 mi Calm Calm - N/A   Mostly Cloudy
2:53 AM 53.1 °F 37.9 °F 57% 30.17 in 10.0 mi SE 3.5 mph - N/A   Mostly Cloudy
3:53 AM 51.1 °F 39.9 °F 66% 30.18 in 10.0 mi Calm Calm - N/A   Overcast
4:53 AM 54.0 °F 39.0 °F 57% 30.15 in 10.0 mi SE 6.9 mph - N/A   Mostly Cloudy
5:53 AM 54.0 °F 39.0 °F 57% 30.16 in 10.0 mi South 4.6 mph - 0.00 in   Mostly Cloudy
6:53 AM 55.0 °F 39.9 °F 57% 30.14 in 10.0 mi ESE 8.1 mph - N/A   Overcast
7:53 AM 55.9 °F 41.0 °F 57% 30.14 in 10.0 mi SE 10.4 mph - N/A   Overcast
8:53 AM 57.9 °F 50.0 °F 75% 30.13 in 10.0 mi SSE 16.1 mph - 0.00 in   Overcast
9:35 AM 59.0 °F 52.0 °F 78% 30.12 in 10.0 mi SSE 20.7 mph 28.8 mph N/A   Overcast
9:44 AM 59.0 °F 52.0 °F 78% 30.12 in 10.0 mi SSE 20.7 mph - 0.00 in Rain Light Rain
9:53 AM 59.0 °F 52.0 °F 78% 30.13 in 10.0 mi SSE 20.7 mph - 0.00 in   Overcast
10:41 AM 57.9 °F 55.0 °F 90% 30.12 in 3.0 mi SSE 19.6 mph 27.6 mph 0.04 in Rain Rain
10:53 AM 57.9 °F 55.0 °F 90% 30.13 in 4.0 mi SSE 18.4 mph 26.5 mph 0.05 in Rain Light Rain
11:24 AM 57.9 °F 55.9 °F 93% 30.12 in 2.5 mi SSE 16.1 mph - 0.06 in Rain Rain
11:35 AM 59.0 °F 55.9 °F 90% 30.11 in 3.0 mi SE 18.4 mph - 0.08 in Rain Rain
11:53 AM 59.0 °F 55.9 °F 90% 30.11 in 5.0 mi SSE 16.1 mph - 0.10 in Rain Light Rain
12:53 PM 59.0 °F 57.0 °F 93% 30.07 in 5.0 mi SSE 19.6 mph 26.5 mph 0.08 in Rain Light Rain
1:53 PM 60.1 °F 57.0 °F 90% 30.04 in 9.0 mi SSE 19.6 mph 25.3 mph 0.01 in Rain Light Rain
2:53 PM 60.1 °F 57.0 °F 90% 30.03 in 8.0 mi SSE 16.1 mph - 0.00 in Rain Light Rain
3:01 PM 60.1 °F 55.9 °F 86% 30.01 in 8.0 mi SSE 19.6 mph - 0.00 in Rain Light Rain
3:21 PM 60.1 °F 55.9 °F 86% 30.01 in 5.0 mi South 16.1 mph - 0.00 in   Overcast
3:53 PM 59.0 °F 55.9 °F 90% 30.02 in 4.0 mi SSE 19.6 mph - 0.01 in Rain Light Rain
4:16 PM 57.9 °F 55.0 °F 90% 30.02 in 1.8 mi Variable 6.9 mph 18.4 mph 0.05 in Rain Rain
4:26 PM 55.9 °F 53.1 °F 90% 30.01 in 1.5 mi North 5.8 mph - 0.09 in Rain Rain
4:30 PM 55.9 °F 53.1 °F 90% 30.01 in 3.0 mi North 6.9 mph - 0.10 in Rain Rain
4:37 PM 55.9 °F 53.1 °F 90% 30.01 in 5.0 mi North 5.8 mph - 0.10 in Rain Light Rain
4:53 PM 55.9 °F 53.1 °F 90% 30.02 in 8.0 mi Calm Calm - 0.11 in Rain Light Rain
5:00 PM 55.9 °F 52.0 °F 87% 30.02 in 7.0 mi Calm Calm - 0.01 in Rain Light Rain
5:53 PM 55.9 °F 53.1 °F 90% 30.01 in 10.0 mi Calm Calm - 0.01 in   Overcast
6:53 PM 55.0 °F 52.0 °F 89% 30.01 in 7.0 mi South 3.5 mph - N/A   Overcast
7:53 PM 54.0 °F 51.1 °F 90% 30.01 in 10.0 mi South 3.5 mph - 0.00 in   Overcast
8:53 PM 53.1 °F 50.0 °F 89% 30.00 in 6.0 mi NE 3.5 mph - N/A   Overcast
9:53 PM 53.1 °F 51.1 °F 93% 30.00 in 5.0 mi Calm Calm - N/A   Overcast
10:28 PM 53.1 °F 51.1 °F 93% 30.00 in 2.5 mi Calm Calm - N/A   Overcast
10:35 PM 52.0 °F 50.0 °F 93% 29.99 in 3.0 mi Calm Calm - N/A   Overcast
10:50 PM 51.8 °F 50.0 °F 94% 29.99 in 1.8 mi Calm Calm - N/A   Overcast
10:53 PM 52.0 °F 50.0 °F 93% 30.00 in 1.5 mi Calm Calm - N/A   Overcast
10:59 PM 52.0 °F 48.9 °F 89% 29.99 in 0.8 mi NE 3.5 mph - N/A   Overcast
11:14 PM 52.0 °F 50.0 °F 93% 29.99 in 1.2 mi ENE 3.5 mph - N/A   Overcast
11:25 PM 52.0 °F 50.0 °F 93% 29.99 in 0.8 mi ENE 3.5 mph - N/A   Overcast
11:53 PM 52.0 °F 50.0 °F 93% 29.99 in 0.8 mi Calm Calm - N/A   Overcast
11:55 PM 52.0 °F 51.1 °F 97% 29.97 in 1.2 mi Calm Calm - N/A   Overcast